Regional Weather Roundup
Issued by NWS Cleveland, OH

Home | Current Version | Previous Version | Graphics & Text | Print | Product List | Glossary On
Versions: 1 2 3 4 5 6 7 8 9 10 11 12 13 14 15 16 17 18 19 20 21 22 23 24 25 26 27 28 29 30 31 32 33 34 35 36 37 38 39 40 41 42 43 44 45 46 47 48 49 50
000
ASUS41 KCLE 280112
RWRCLE
OHIO REGIONAL WEATHER ROUNDUP
NATIONAL WEATHER SERVICE WILMINGTON, OH
900 PM EDT FRI MAY 27 2016

NOTE: "FAIR" INDICATES FEW OR NO CLOUDS BELOW 12,000 FEET WITH NO
SIGNIFICANT WEATHER AND/OR OBSTRUCTIONS TO VISIBILITY.

OHZ001>008-015>018-024>027-034-035-043-044-280200-
   NORTHWEST OHIO

CITY           SKY/WX    TMP DP  RH WIND       PRES   REMARKS
DEFIANCE       FAIR      83  59  44 S6        29.93R
FINDLAY        FAIR      79  59  50 S8        29.95R
TOLEDO EXPRESS FAIR      78  64  61 E5        29.93R
TOLEDO EXEC    FAIR      79  63  57 E7        29.95R
LIMA           FAIR      81  60  48 S8        29.97R
$$

OHZ009>014-019>023-028>033-038-089-280200-
   NORTHEAST OHIO

CITY           SKY/WX    TMP DP  RH WIND       PRES   REMARKS
CLE-HOPKINS    CLOUDY    82  61  48 SE3       30.01R
CLE-LAKEFRONT  FAIR      73  64  73 NE6       29.98R
CUY CO. ARPT   MOCLDY    81  68  65 CALM      30.01R
LORAIN-ELYRIA  FAIR      79  61  53 S6        29.99R
ASHTABULA      FAIR      72  64  76 CALM      30.02R
AKRON-CANTON   FAIR      77  62  59 S6        30.03R
WOOSTER        FAIR      75  63  66 S5        30.02R
MANSFIELD      FAIR      78  64  61 SE8       30.01R
YOUNGSTOWN     MOCLDY    75  62  64 S3        30.03R
$$

OHZ042-051>053-060>062-070>072-077>081-280200-
  SOUTHWEST OHIO

CITY           SKY/WX    TMP DP  RH WIND       PRES   REMARKS
CINC-COVINGTON MOCLDY    76  66  71 S7        29.99R
CINC-LUNKEN    FAIR      75  71  87 CALM      29.98R
HAMILTON       FAIR      81  64  56 S3        29.98R
DAYTON         MOCLDY    79  61  53 S7        30.00R
WRIGHT-PAT AFB MOCLDY    79  63  56 S7        29.98R
DAYTON GENERAL FAIR      77  61  57 S7        29.99R
WILMINGTON     FAIR      77  64  64 S5        30.00R
$$

OHZ036-037-039>041-045>050-054>059-063>069-073>076-082>088-280200-
  CENTRAL AND SOUTHEAST OHIO

CITY           SKY/WX    TMP DP  RH WIND       PRES   REMARKS
COLUMBUS       MOCLDY    82  62  50 S6        29.99R
OSU AIRPORT    NOT AVBL
BOLTON FIELD   FAIR      78  65  62 S5        30.00S
RICKENBACK AFB FAIR      79  63  57 S6        29.99R
NEWARK         FAIR      81  64  56 SE5       30.00R
MARION         FAIR      78  61  55 S7        29.99R
LANCASTER      FAIR      78  64  61 S3        30.01R
ZANESVILLE     FAIR      81  65  58 SE3       30.02R
NEW PHILLY     FAIR      79  65  62 SE3       30.02R
$$




USA.gov is the U.S. government's official web portal to all federal, state and local government web resources and services.